Location: Middleville
(41.0560°N, 74.8630°W)
Time: 17:12:38
(UTC-04:00)

Tiangong 2 - Visible Passes

Search period start: 22 June 2018 00:00
Search period end: 02 July 2018 00:00
Orbit: 291 x 296 km, 42.8° (Epoch: 21 June)

Date Brightness Start Highest point End Pass type
(mag) Time Alt. Az. Time Alt. Az. Time Alt. Az.
25 Jun 3.2 04:41:31 10° SSE 04:42:17 11° SE 04:43:03 10° SE visible
26 Jun 2.4 04:45:54 10° SSW 04:47:54 20° SSE 04:49:55 10° E visible
27 Jun 1.4 04:51:07 10° SW 04:53:31 38° SSE 04:55:56 10° E visible
28 Jun 3.4 03:25:53 10° ESE 03:25:53 10° ESE 03:26:01 10° ESE visible
28 Jun 0.5 04:56:35 10° WSW 04:59:08 69° SSE 05:01:40 10° ENE visible
29 Jun 2.6 03:30:59 20° ESE 03:30:59 20° ESE 03:32:19 10° E visible
30 Jun 1.4 03:36:00 39° SE 03:36:00 39° SE 03:38:03 10° E visible
01 Jul 0.3 03:40:55 76° S 03:40:59 77° SSE 03:43:32 10° ENE visible
